Location: Aiyekoto
(8.4333°N, 4.3667°E)
Time: 03:15:26
(UTC+00:00)

Hubble Space Telescope - Pass Details

Date: 19 August 2020
Orbit: 536 x 540 km, 28.5° (Epoch: 22 September)

Event Time Altitude Azimuth Distance (km) Brightness Sun altitude
Exits shadow 04:18:44 - 329° (NNW) 2,286 3.8 -19.1°
Reaches altitude 10° 04:20:43 10° 348° (NNW) 1,775 3.5 -18.6°
Maximum altitude 04:22:57 14° 21° (NNE) 1,528 3.5 -18.1°
Drops below altitude 10° 04:25:11 10° 54° (NE) 1,777 4.5 -17.6°
Sets 04:28:22 0° 80° (E) 2,669 6.1 -16.8°
